Location: Owl River
(54.8872°N, 111.8867°W)
Time: 19:52:06
(UTC+00:00)

Envisat - Visible Passes

Search period start: 03 December 2023 00:00
Search period end: 13 December 2023 00:00
Orbit: 762 x 764 km, 98.3° (Epoch: 03 December)

Date Brightness Start Highest point End Pass type
(mag) Time Alt. Az. Time Alt. Az. Time Alt. Az.
03 Dec 5.4 11:12:24 10° NNE 11:13:17 15° NNE 11:13:17 15° NNE visible
03 Dec 4.8 12:52:01 10° N 12:53:27 16° NNW 12:53:27 16° NNW visible
04 Dec 5.8 10:35:18 10° NNE 10:35:30 11° NNE 10:35:30 11° NNE visible
04 Dec 4.9 12:14:22 10° N 12:15:40 17° N 12:15:40 17° N visible
04 Dec 5.0 13:55:46 10° NNW 13:55:49 10° NNW 13:55:49 10° NNW visible
05 Dec 5.2 11:36:55 10° NNE 11:37:54 16° NNE 11:37:54 16° NNE visible
05 Dec 4.9 13:16:58 10° N 13:18:03 14° NNW 13:18:03 14° NNW visible
06 Dec 5.6 10:59:40 10° NNE 11:00:07 12° NNE 11:00:07 12° NNE visible
06 Dec 4.9 12:39:06 10° N 12:40:17 16° N 12:40:17 16° N visible
07 Dec 5.1 12:01:32 10° N 12:02:31 16° N 12:02:31 16° N visible
07 Dec 5.0 13:42:14 10° NNW 13:42:40 11° NNW 13:42:40 11° NNW visible
08 Dec 5.4 11:24:08 10° NNE 11:24:45 14° NNE 11:24:45 14° NNE visible
08 Dec 5.0 13:03:58 10° N 13:04:54 14° NNW 13:04:54 14° NNW visible
09 Dec 5.8 10:46:58 10° NNE 10:46:59 10° NNE 10:46:59 10° NNE visible
09 Dec 5.1 12:26:13 10° N 12:27:09 15° N 12:27:09 15° N visible
09 Dec 5.9 23:51:20 10° WSW 23:53:25 12° W 23:55:31 10° WNW visible
10 Dec 5.3 11:48:42 10° N 11:49:23 14° N 11:49:23 14° N visible
10 Dec 5.1 13:29:01 10° NNW 13:29:33 11° NNW 13:29:33 11° NNW visible
11 Dec 5.7 11:11:23 10° NNE 11:11:38 11° NNE 11:11:38 11° NNE visible
11 Dec 5.1 12:51:00 10° N 12:51:47 13° N 12:51:47 13° N visible
12 Dec 5.2 12:13:21 10° N 12:14:02 14° N 12:14:02 14° N visible
12 Dec 5.7 23:37:28 10° WSW 23:40:27 16° W 23:43:26 10° NW visible
